This demonstration page uses our WeatherBlox Daily Observations layout. Learn more.

Left ArrowRight Arrow

39.92423, -83.80882

Hourly Observations for February 5, 2020

Temp ( °F °C ) Dew Point ( °F °C ) Humidity (%) Winds ( mph kmh ) Pressure ( in mb ) Visibility ( mi km ) Precip ( " mm )
12:09 am 00:09 Cloudy 30 -1 30 -1 100 100 NE 18 30 30.03 1017 10 16 N/A
12:19 am 00:19 Cloudy 30 -1 30 -1 100 100 NE 15 24 30.04 1017 10 16 N/A
12:56 am 00:56 Cloudy 31 -0.6 31 -0.6 100 100 NNE 17 28 30.01 1016 10 16 N/A
1:29 am 01:29 Cloudy 30 -1 28 -2 93 93 NE 16 26 30.05 1018 10 16 N/A
1:56 am 01:56 Cloudy 31 -0.6 28 -2.2 89 89 NE 17 28 30.03 1017 10 16 N/A
2:56 am 02:56 Cloudy with Light Snow 31 -0.6 27 -2.8 85 85 NNE 13 20 30.05 1018 9 14 0.00 0.00
3:56 am 03:56 Cloudy 31 -0.6 28 -2.2 89 89 NNE 14 22 30.06 1018 10 16 0.00 0.00
4:40 am 04:40 Cloudy 30 -1 28 -2 93 93 NNE 14 22 30.11 1020 10 16 N/A
4:56 am 04:56 Cloudy 31 -0.6 28 -2.2 89 89 NE 14 22 30.09 1019 10 16 N/A
5:20 am 05:20 Cloudy 30 -1 27 -3 86 86 NE 21 33 30.11 1020 10 16 N/A
5:56 am 05:56 Cloudy 30 -1.1 28 -2.2 92 92 NE 16 26 30.09 1019 10 16 N/A
6:08 am 06:08 Cloudy 30 -1 28 -2 93 93 ENE 16 26 30.11 1020 10 16 N/A
6:56 am 06:56 Cloudy 30 -1.1 28 -2.2 92 92 NE 17 28 30.09 1019 10 16 N/A
7:07 am 07:07 Cloudy 30 -1 28 -2 93 93 ENE 15 24 30.12 1020 10 16 N/A
7:41 am 07:41 Cloudy 30 -1 28 -2 93 93 NE 15 24 30.13 1020 10 16 N/A
7:56 am 07:56 Cloudy 30 -1.1 28 -2.2 92 92 ENE 14 22 30.10 1019 10 16 N/A
8:56 am 08:56 Cloudy 31 -0.6 28 -2.2 89 89 ENE 13 20 30.10 1019 10 16 N/A
9:11 am 09:11 Cloudy 30 -1 28 -2 93 93 ENE 14 22 30.11 1020 10 16 N/A
9:26 am 09:26 Cloudy 30 -1 28 -2 93 93 ENE 16 26 30.10 1019 10 16 N/A
9:33 am 09:33 Cloudy 30 -1 28 -2 93 93 ENE 16 26 30.10 1019 10 16 N/A
9:43 am 09:43 Cloudy 30 -1 28 -2 93 93 ENE 15 24 30.10 1019 10 16 N/A
9:56 am 09:56 Cloudy 31 -0.6 29 -1.7 92 92 ENE 14 22 30.08 1019 10 16 N/A
10:13 am 10:13 Cloudy 32 undefined 28 -2 87 87 E 14 22 30.10 1019 10 16 N/A
10:56 am 10:56 Cloudy 32 undefined 28 -2.2 85 85 ENE 13 20 30.10 1019 10 16 N/A
11:56 am 11:56 Cloudy 33 0.6 28 -2.2 82 82 ENE 16 26 30.04 1017 10 16 N/A
12:56 pm 12:56 Cloudy 34 1.1 27 -2.8 76 76 ENE 16 26 30.00 1016 10 16 N/A
1:34 pm 13:34 Cloudy 34 1 27 -3 75 75 E 13 20 30.00 1016 10 16 N/A
1:56 pm 13:56 Cloudy 35 1.7 27 -2.8 72 72 ENE 16 26 29.95 1014 10 16 N/A
2:56 pm 14:56 Cloudy 35 1.7 27 -2.8 72 72 ENE 15 24 29.91 1013 10 16 N/A
3:56 pm 15:56 Cloudy 34 1.1 27 -2.8 76 76 ENE 12 19 29.89 1012 10 16 N/A
4:56 pm 16:56 Cloudy with Light Rain 34 1.1 28 -2.2 79 79 ENE 15 24 29.84 1011 10 16 0.00 0.00
5:56 pm 17:56 Cloudy with Light Rain 33 0.6 29 -1.7 85 85 ENE 16 26 29.79 1009 10 16 0.00 0.00
6:08 pm 18:08 Cloudy with Rain 32 undefined 30 -1 93 93 ENE 16 26 29.79 1009 10 16 0.00 0.00
6:53 pm 18:53 Cloudy with Light Snow 32 undefined 30 -1 93 93 NE 7 11 29.81 1010 3 4 N/A
6:54 pm 18:54 Cloudy with Light Snow 32 undefined 31 -0.6 96 96 NE 10 17 29.79 1009 3 4 N/A
7:01 pm 19:01 Cloudy with Light Snow 32 undefined 32 undefined 100 100 ENE 12 19 29.79 1009 2 3 N/A
7:12 pm 19:12 Cloudy with Light Snow 32 undefined 32 undefined 100 100 NE 10 17 29.79 1009 3 4 N/A
7:29 pm 19:29 Cloudy with Light Snow 32 undefined 32 undefined 100 100 NE 12 19 29.79 1009 2 2 N/A
7:39 pm 19:39 Cloudy with Light Snow 32 undefined 32 undefined 100 100 NNE 12 19 29.80 1009 2 3 N/A
7:56 pm 19:56 Cloudy with Light Snow 32 undefined 32 undefined 100 100 NE 14 22 29.76 1008 3 4 N/A
8:06 pm 20:06 Cloudy with Light Wintry Mix 32 undefined 32 undefined 100 100 NE 14 22 29.78 1009 6 10 N/A
8:15 pm 20:15 Cloudy with Light Freezing Rain 32 undefined 32 undefined 100 100 NNE 15 24 29.79 1009 5 8 N/A
8:27 pm 20:27 Cloudy with Light Snow 32 undefined 32 undefined 100 100 N 9 15 29.82 1010 5 8 N/A
8:56 pm 20:56 Cloudy with Light Snow 31 -0.6 31 -0.6 100 100 NNE 13 20 29.78 1009 4 6 N/A
9:10 pm 21:10 Cloudy with Light Freezing Rain 30 -1 30 -1 100 100 NE 15 24 29.79 1009 5 8 N/A
9:45 pm 21:45 Cloudy with Light Snow 30 -1 30 -1 100 100 ENE 16 26 29.76 1008 7 11 N/A
9:56 pm 21:56 Cloudy with Light Wintry Mix 31 -0.6 31 -0.6 100 100 ENE 15 24 29.71 1006 9 14 N/A
10:56 pm 22:56 Cloudy 31 -0.6 30 -1.1 96 96 ENE 10 17 29.69 1005 10 16 N/A
11:56 pm 23:56 Cloudy with Light Wintry Mix 31 -0.6 31 -0.6 100 100 NE 9 15 29.66 1004 4 6 N/A

Powered by AerisWeather